User: anonymous   Login
Location: Gairloch Mountain Observatory
(46.1383°N, 60.9640°W)
Time: 07:08:27
(UTC-03:00)
Language:

CENTAUR R/B - Orbit

View from above orbital plane
View from above orbital plane
View from above satellite
View from above satellite

Ground track
Ground track

The orbit data is extracted from the following two-line orbital elements,

1 26906U 01040B   14287.13596051 0.00000000  00000-0  00000-0 0    03
2 26906  63.4645 316.1223 0269000 345.2730  14.7270 13.43916502    07
Epoch (UTC): 14 October 2014 03:15:46
Eccentricity: 0.0269000
inclination: 63.4645°
perigee height: 894 km
apogee height: 1296 km
right ascension of ascending node: 316.1223°
argument of perigee: 345.2730°
revolutions per day: 13.43916502
mean anomaly at epoch: 14.7270°
orbit number at epoch: 0

The dashed part of the orbit path shows where the satellite is in the earth's shadow,  

DLR